Le Luc, France

2:46 AM CEST on August 20, 2017 (GMT +0200)
Le Cannet Army

Weather History for LFMC - August, 2014

Change the Weather History Date:

Saturday, August 30, 2014

  Actual Average Record
Temperature  
Mean Temperature 73 °F -  
Max Temperature 87 °F 75 °F - ()
Min Temperature 59 °F 59 °F - ()
Cooling Degree Days 8    
Growing Degree Days 23 (Base 50)    
Moisture  
Dew Point 63 °F    
Average Humidity 67    
Maximum Humidity 94    
Minimum Humidity 29    
Precipitation  
Precipitation 0.00 in - - ()
Sea Level Pressure  
Sea Level Pressure 29.98 in    
Wind  
Wind Speed 3 mph ()    
Max Wind Speed 13 mph    
Max Gust Speed -    
Visibility 7.4 miles    
Events      
T = Trace of Precipitation, MM = Missing Value Source: Averaged Metar Reports

Daily Weather History Graph

Daily Weather History Graph

Search for Another Location

Airport or City:

Trip Planner

Search our weather history database for the weather conditions in past years. The results will help you decide how hot, cold, wet, or windy it might be!

Date:

Astronomy

Aug. 30, 2014 Rise Set
Actual Time 6:55 AM CEST 8:13 PM CEST
Civil Twilight 6:26 AM CEST 8:43 PM CEST
Nautical Twilight 5:50 AM CEST 9:18 PM CEST
Astronomical Twilight 5:13 AM CEST 9:55 PM CEST
Moon 11:36 AM CEST (8/30) 10:28 PM CEST (8/30)
Length of Visible Light 14h 16m
Length of Day
13h 17m
Waxing Crescent, 20% of the Moon is Illuminated
Aug 30
Waxing Crescent
Sep 2
First Quarter
Sep 9
Full
Sep 16
Last Quarter
Sep 24
New

Hourly Weather History & Observations

Time (CEST) Temp. Heat Index Dew Point Humidity Pressure Visibility Wind Dir Wind Speed Gust Speed Precip Events Conditions
12:00 AM 68 °F - 64 °F 82% 30.01 in 22 mi WSW 1.2 mph - -   Clear
12:00 AM 68.0 °F - 64.4 °F 88% 30.01 in 6.2 mi Variable 1.2 mph - N/A   Unknown
12:30 AM 68.0 °F - 62.6 °F 83% 30.01 in 6.2 mi Variable 1.2 mph - N/A   Unknown
1:00 AM 67 °F - 62 °F 81% 30.01 in 22 mi NW 2.3 mph - -   Clear
1:00 AM 68.0 °F - 62.6 °F 83% 30.01 in 6.2 mi Variable 2.3 mph - N/A   Unknown
1:30 AM 68.0 °F - 62.6 °F 83% 30.01 in 6.2 mi Variable 1.2 mph - N/A   Unknown
2:00 AM 67 °F - 61 °F 76% 30.00 in 25 mi Calm Calm - -   Clear
2:00 AM 66.2 °F - 60.8 °F 83% 30.01 in 6.2 mi Calm Calm - N/A   Unknown
2:30 AM 66.2 °F - 60.8 °F 83% 29.98 in 6.2 mi Variable 2.3 mph - N/A   Unknown
3:00 AM 65 °F - 62 °F 85% 30.00 in 12 mi Calm Calm - -   Clear
3:00 AM 64.4 °F - 60.8 °F 88% 30.01 in 6.2 mi Calm Calm - N/A   Unknown
3:30 AM 64.4 °F - 60.8 °F 88% 29.98 in 6.2 mi Calm Calm - N/A   Unknown
4:00 AM 64 °F - 61 °F 87% 30.00 in 12 mi Calm Calm - -   Clear
4:00 AM 64.4 °F - 60.8 °F 88% 29.98 in 6.2 mi Calm Calm - N/A   Unknown
4:30 AM 64.4 °F - 60.8 °F 88% 30.01 in 6.2 mi Calm Calm - N/A   Unknown
5:00 AM 62.6 °F - 60.8 °F 94% 30.01 in 6.2 mi Calm Calm - N/A   Unknown
5:30 AM 62.6 °F - 59.0 °F 88% 30.01 in 6.2 mi Calm Calm - N/A   Unknown
6:00 AM 62 °F - 60 °F 90% 30.00 in 11 mi West 2.3 mph - -   Clear
6:00 AM 62.6 °F - 60.8 °F 94% 30.01 in 6.2 mi Variable 2.3 mph - N/A   Unknown
6:30 AM 60.8 °F - 59.0 °F 94% 30.01 in 6.2 mi Variable 2.3 mph - N/A   Unknown
7:00 AM 60 °F - 58 °F 89% 30.01 in 9 mi ESE 1.2 mph - -   Clear
7:00 AM 60.8 °F - 57.2 °F 88% 30.01 in 6.2 mi Calm Calm - N/A   Unknown
7:30 AM 60.8 °F - 59.0 °F 94% 30.01 in 6.2 mi NNW 2.3 mph - N/A   Unknown
8:00 AM 65 °F - 60 °F 78% 30.02 in 12 mi Calm Calm - -   Clear
8:00 AM 64.4 °F - 60.8 °F 88% 30.01 in 6.2 mi Calm Calm - N/A   Unknown
8:30 AM 68.0 °F - 60.8 °F 78% 30.01 in 6.2 mi Calm Calm - N/A   Unknown
9:00 AM 70 °F - 62 °F 69% 30.03 in 17 mi South 2.3 mph - -   Clear
9:00 AM 69.8 °F - 62.6 °F 78% 30.01 in 6.2 mi Variable 2.3 mph - N/A   Unknown
9:30 AM 73.4 °F - 62.6 °F 69% 30.01 in 6.2 mi Calm Calm - N/A   Unknown
10:00 AM 77 °F - 63 °F 53% 30.01 in 12 mi SE 1.2 mph - -   Clear
10:00 AM 77.0 °F - 62.6 °F 61% 30.01 in 6.2 mi Calm Calm - N/A   Unknown
10:30 AM 78.8 °F - 62.6 °F 57% 30.01 in 6.2 mi Calm Calm - N/A   Unknown
11:00 AM 80 °F - 62 °F 44% 30.00 in 19 mi East 4.6 mph - -   Clear
11:00 AM 80.6 °F 81.8 °F 62.6 °F 54% 30.01 in 6.2 mi East 4.6 mph - N/A   Unknown
11:30 AM 82.4 °F 83.4 °F 62.6 °F 51% 30.01 in 6.2 mi Variable 2.3 mph - N/A   Unknown
12:00 PM 85 °F - 60 °F 33% 29.99 in 31 mi South 2.3 mph - -   Clear
12:00 PM 84.2 °F 84.4 °F 60.8 °F 45% 30.01 in 6.2 mi Variable 2.3 mph - N/A   Unknown
12:30 PM 86.0 °F 86.1 °F 60.8 °F 43% 29.98 in 6.2 mi ENE 3.5 mph - N/A   Unknown
1:00 PM 87 °F - 59 °F 29% 29.98 in 28 mi NNW 3.5 mph - -   Clear
1:30 PM 86.0 °F 86.1 °F 60.8 °F 43% 29.98 in 6.2 mi Variable 4.6 mph - N/A   Unknown
2:00 PM 86 °F - 61 °F 33% 29.96 in 25 mi SSE 8.1 mph - -   Clear
2:00 PM 86.0 °F 86.1 °F 60.8 °F 43% 29.98 in 6.2 mi SSE 8.1 mph - N/A   Unknown
2:30 PM 86.0 °F 86.1 °F 60.8 °F 43% 29.98 in 6.2 mi South 11.5 mph - N/A   Unknown
3:00 PM 87 °F - 63 °F 35% 29.95 in 22 mi SSE 11.5 mph - -   Clear
3:00 PM 87.8 °F 88.5 °F 62.6 °F 43% 29.95 in 6.2 mi SSE 11.5 mph - N/A   Unknown
3:30 PM 84.2 °F 85.0 °F 62.6 °F 48% 29.95 in 6.2 mi SSE 12.7 mph - N/A   Unknown
4:00 PM 84 °F - 65 °F 43% 29.94 in 22 mi SSE 11.5 mph - -   Clear
4:00 PM 84.2 °F 85.6 °F 64.4 °F 51% 29.95 in 6.2 mi SSE 11.5 mph - N/A   Unknown
4:30 PM 84.2 °F 85.6 °F 64.4 °F 51% 29.95 in 6.2 mi SSE 10.4 mph - N/A   Unknown
5:00 PM 84 °F - 64 °F 41% 29.94 in 22 mi SSE 10.4 mph - -   Clear
5:00 PM 84.2 °F 85.6 °F 64.4 °F 51% 29.95 in 6.2 mi SSE 10.4 mph - N/A   Unknown
5:30 PM 84.2 °F 85.0 °F 62.6 °F 48% 29.92 in 6.2 mi SSE 10.4 mph - N/A   Unknown
6:00 PM 82 °F - 64 °F 44% 29.93 in 28 mi SSE 10.4 mph - -   Clear
6:00 PM 82.4 °F 83.9 °F 64.4 °F 54% 29.92 in 6.2 mi SSE 10.4 mph - N/A   Unknown
6:30 PM 82.4 °F 83.9 °F 64.4 °F 54% 29.95 in 6.2 mi SE 6.9 mph - N/A   Unknown
7:00 PM 80 °F - 64 °F 50% 29.93 in 25 mi East 6.9 mph - -   Clear
7:00 PM 80.6 °F 82.3 °F 64.4 °F 58% 29.92 in 6.2 mi East 6.9 mph - N/A   Unknown
7:30 PM 78.8 °F - 66.2 °F 65% 29.95 in 6.2 mi East 6.9 mph - N/A   Unknown
8:00 PM 77 °F - 66 °F 60% 29.95 in 22 mi ENE 4.6 mph - -   Clear
8:00 PM 77.0 °F - 66.2 °F 69% 29.95 in 6.2 mi ENE 4.6 mph - N/A   Unknown
8:30 PM 75.2 °F - 66.2 °F 73% 29.95 in 6.2 mi East 4.6 mph - N/A   Unknown
9:00 PM 74 °F - 66 °F 69% 29.96 in 22 mi ENE 3.5 mph - -   Clear
9:00 PM 75.2 °F - 66.2 °F 73% 29.95 in 6.2 mi ENE 3.5 mph - N/A   Unknown
9:30 PM 73.4 °F - 66.2 °F 78% 29.98 in 6.2 mi North 4.6 mph - N/A   Unknown
10:00 PM 73 °F - 66 °F 72% 29.97 in 12 mi SSE 1.2 mph - -   Clear
10:00 PM 73.4 °F - 66.2 °F 78% 29.98 in 6.2 mi Calm Calm - N/A   Unknown
10:30 PM 71.6 °F - 66.2 °F 83% 29.98 in 6.2 mi Calm Calm - N/A   Unknown
11:00 PM 71 °F - 64 °F 73% 29.97 in 17 mi WNW 1.2 mph - -   Clear
11:00 PM 71.6 °F - 64.4 °F 78% 29.98 in 6.2 mi Calm Calm - N/A   Unknown
11:30 PM 69.8 °F - 64.4 °F 83% 29.95 in 6.2 mi Variable 2.3 mph - N/A   Unknown